owner,sensor,date,latitude,longitude,air_pressure(mBar),qcFlag 
COMPS,ioos:station:USF.COMPS:C13:1,2019-09-01T00:35:00,26.0630,-83.0730,1012.23,11111222 
COMPS,ioos:station:USF.COMPS:C13:1,2019-09-01T01:35:00,26.0630,-83.0730,1013.6,11111222 
COMPS,ioos:station:USF.COMPS:C13:1,2019-09-01T02:35:00,26.0630,-83.0730,1013.5,11111222 
COMPS,ioos:station:USF.COMPS:C13:1,2019-09-01T03:35:00,26.0630,-83.0730,1013.49,11111222 
COMPS,ioos:station:USF.COMPS:C13:1,2019-09-01T04:35:00,26.0630,-83.0730,1012.99,11111222 
COMPS,ioos:station:USF.COMPS:C13:1,2019-09-01T05:35:00,26.0630,-83.0730,1012.95,11111222 
COMPS,ioos:station:USF.COMPS:C13:1,2019-09-01T06:35:00,26.0630,-83.0730,1012.54,11111222 
COMPS,ioos:station:USF.COMPS:C13:1,2019-09-01T07:35:00,26.0630,-83.0730,1012.21,11111222 
COMPS,ioos:station:USF.COMPS:C13:1,2019-09-01T08:35:00,26.0630,-83.0730,1012.15,11111222 
COMPS,ioos:station:USF.COMPS:C13:1,2019-09-01T09:35:00,26.0630,-83.0730,1012.57,11111222 
COMPS,ioos:station:USF.COMPS:C13:1,2019-09-01T10:35:00,26.0630,-83.0730,1012.49,11111222 
COMPS,ioos:station:USF.COMPS:C13:1,2019-09-01T11:35:00,26.0630,-83.0730,1012.5,11111222 
COMPS,ioos:station:USF.COMPS:C13:1,2019-09-01T12:35:00,26.0630,-83.0730,1013.0,11111222 
COMPS,ioos:station:USF.COMPS:C13:1,2019-09-01T13:35:00,26.0630,-83.0730,1013.57,11111222 
COMPS,ioos:station:USF.COMPS:C13:1,2019-09-01T14:35:00,26.0630,-83.0730,1013.96,11111222 
COMPS,ioos:station:USF.COMPS:C13:1,2019-09-01T15:35:00,26.0630,-83.0730,1014.03,11111222 
COMPS,ioos:station:USF.COMPS:C13:1,2019-09-01T16:35:00,26.0630,-83.0730,1013.63,11111222 
COMPS,ioos:station:USF.COMPS:C13:1,2019-09-01T17:35:00,26.0630,-83.0730,1013.47,11111222 
COMPS,ioos:station:USF.COMPS:C13:1,2019-09-01T18:35:00,26.0630,-83.0730,1012.82,11111222 
COMPS,ioos:station:USF.COMPS:C13:1,2019-09-01T19:35:00,26.0630,-83.0730,1011.92,11111222 
COMPS,ioos:station:USF.COMPS:C13:1,2019-09-01T20:35:00,26.0630,-83.0730,1011.28,11111222 
COMPS,ioos:station:USF.COMPS:C13:1,2019-09-01T21:35:00,26.0630,-83.0730,1011.15,11111222 
COMPS,ioos:station:USF.COMPS:C13:1,2019-09-01T22:35:00,26.0630,-83.0730,1011.91,11111222 
COMPS,ioos:station:USF.COMPS:C13:1,2019-09-01T23:35:00,26.0630,-83.0730,1011.53,11111222 
COMPS,ioos:station:USF.COMPS:C13:1,2019-09-02T00:35:00,26.0630,-83.0730,1012.13,11111222 
COMPS,ioos:station:USF.COMPS:C13:1,2019-09-02T01:35:00,26.0630,-83.0730,1011.82,11111222 
COMPS,ioos:station:USF.COMPS:C13:1,2019-09-02T02:35:00,26.0630,-83.0730,1012.33,11111222 
COMPS,ioos:station:USF.COMPS:C13:1,2019-09-02T03:35:00,26.0630,-83.0730,1012.08,11111222 
COMPS,ioos:station:USF.COMPS:C13:1,2019-09-02T04:35:00,26.0630,-83.0730,1011.83,11111222 
COMPS,ioos:station:USF.COMPS:C13:1,2019-09-02T05:35:00,26.0630,-83.0730,1010.98,11111222 
COMPS,ioos:station:USF.COMPS:C13:1,2019-09-02T06:35:00,26.0630,-83.0730,1010.71,11111222 
COMPS,ioos:station:USF.COMPS:C13:1,2019-09-02T07:35:00,26.0630,-83.0730,1010.06,11111222 
COMPS,ioos:station:USF.COMPS:C13:1,2019-09-02T08:35:00,26.0630,-83.0730,1010.01,11111222 
COMPS,ioos:station:USF.COMPS:C13:1,2019-09-02T09:35:00,26.0630,-83.0730,1010.18,11111222 
COMPS,ioos:station:USF.COMPS:C13:1,2019-09-02T10:35:00,26.0630,-83.0730,1010.46,11111222 
COMPS,ioos:station:USF.COMPS:C13:1,2019-09-02T11:35:00,26.0630,-83.0730,1010.84,11111222 
COMPS,ioos:station:USF.COMPS:C13:1,2019-09-02T12:35:00,26.0630,-83.0730,1011.0,11111222 
COMPS,ioos:station:USF.COMPS:C13:1,2019-09-02T14:35:00,26.0630,-83.0730,1011.81,11111222 
COMPS,ioos:station:USF.COMPS:C13:1,2019-09-02T15:35:00,26.0630,-83.0730,1011.41,11111222 
COMPS,ioos:station:USF.COMPS:C13:1,2019-09-02T16:35:00,26.0630,-83.0730,1011.03,11111222 
COMPS,ioos:station:USF.COMPS:C13:1,2019-09-02T17:35:00,26.0630,-83.0730,1010.59,11111222 
COMPS,ioos:station:USF.COMPS:C13:1,2019-09-02T18:35:00,26.0630,-83.0730,1009.91,11111222 
COMPS,ioos:station:USF.COMPS:C13:1,2019-09-02T19:35:00,26.0630,-83.0730,1009.4,11111222 
COMPS,ioos:station:USF.COMPS:C13:1,2019-09-02T20:35:00,26.0630,-83.0730,1008.74,11111222 
COMPS,ioos:station:USF.COMPS:C13:1,2019-09-02T21:35:00,26.0630,-83.0730,1008.67,11111222 
COMPS,ioos:station:USF.COMPS:C13:1,2019-09-02T22:35:00,26.0630,-83.0730,1008.87,11111222 
COMPS,ioos:station:USF.COMPS:C13:1,2019-09-02T23:35:00,26.0630,-83.0730,1008.95,11111222 
COMPS,ioos:station:USF.COMPS:C13:1,2019-09-03T00:35:00,26.0630,-83.0730,1009.16,11111222 
COMPS,ioos:station:USF.COMPS:C13:1,2019-09-03T01:35:00,26.0630,-83.0730,1009.35,11111222 
COMPS,ioos:station:USF.COMPS:C13:1,2019-09-03T02:35:00,26.0630,-83.0730,1009.68,11111222 
COMPS,ioos:station:USF.COMPS:C13:1,2019-09-03T03:35:00,26.0630,-83.0730,1009.83,11111222 
COMPS,ioos:station:USF.COMPS:C13:1,2019-09-03T04:35:00,26.0630,-83.0730,1009.23,11111222 
COMPS,ioos:station:USF.COMPS:C13:1,2019-09-03T05:35:00,26.0630,-83.0730,1008.8,11111222 
COMPS,ioos:station:USF.COMPS:C13:1,2019-09-03T06:35:00,26.0630,-83.0730,1008.54,11111222 
COMPS,ioos:station:USF.COMPS:C13:1,2019-09-03T07:35:00,26.0630,-83.0730,1007.93,11111222 
COMPS,ioos:station:USF.COMPS:C13:1,2019-09-03T08:35:00,26.0630,-83.0730,1007.88,11111222 
COMPS,ioos:station:USF.COMPS:C13:1,2019-09-03T09:35:00,26.0630,-83.0730,1008.06,11111222 
COMPS,ioos:station:USF.COMPS:C13:1,2019-09-03T10:35:00,26.0630,-83.0730,1008.51,11111222 
COMPS,ioos:station:USF.COMPS:C13:1,2019-09-03T11:35:00,26.0630,-83.0730,1008.95,11111222 
COMPS,ioos:station:USF.COMPS:C13:1,2019-09-03T12:35:00,26.0630,-83.0730,1009.72,11111222 
COMPS,ioos:station:USF.COMPS:C13:1,2019-09-03T13:35:00,26.0630,-83.0730,1010.05,11111222 
COMPS,ioos:station:USF.COMPS:C13:1,2019-09-03T14:35:00,26.0630,-83.0730,1010.41,11111222 
COMPS,ioos:station:USF.COMPS:C13:1,2019-09-03T15:35:00,26.0630,-83.0730,1010.1,11111222 
COMPS,ioos:station:USF.COMPS:C13:1,2019-09-03T16:35:00,26.0630,-83.0730,1009.79,11111222 
COMPS,ioos:station:USF.COMPS:C13:1,2019-09-03T17:35:00,26.0630,-83.0730,1009.54,11111222 
COMPS,ioos:station:USF.COMPS:C13:1,2019-09-03T18:35:00,26.0630,-83.0730,1008.95,11111222 
COMPS,ioos:station:USF.COMPS:C13:1,2019-09-03T19:35:00,26.0630,-83.0730,1008.51,11111222 
COMPS,ioos:station:USF.COMPS:C13:1,2019-09-03T20:35:00,26.0630,-83.0730,1007.98,11111222 
COMPS,ioos:station:USF.COMPS:C13:1,2019-09-03T21:35:00,26.0630,-83.0730,1008.22,11111222 
COMPS,ioos:station:USF.COMPS:C13:1,2019-09-03T22:35:00,26.0630,-83.0730,1008.22,11111222 
COMPS,ioos:station:USF.COMPS:C13:1,2019-09-03T23:35:00,26.0630,-83.0730,1008.63,11111222 
COMPS,ioos:station:USF.COMPS:C13:1,2019-09-04T00:35:00,26.0630,-83.0730,1009.05,11111222 
COMPS,ioos:station:USF.COMPS:C13:1,2019-09-04T01:35:00,26.0630,-83.0730,1009.66,11111222 
COMPS,ioos:station:USF.COMPS:C13:1,2019-09-04T02:35:00,26.0630,-83.0730,1010.19,11111222 
COMPS,ioos:station:USF.COMPS:C13:1,2019-09-04T03:35:00,26.0630,-83.0730,1010.56,11111222 
COMPS,ioos:station:USF.COMPS:C13:1,2019-09-04T04:35:00,26.0630,-83.0730,1010.66,11111222 
COMPS,ioos:station:USF.COMPS:C13:1,2019-09-04T05:35:00,26.0630,-83.0730,1010.35,11111222 
COMPS,ioos:station:USF.COMPS:C13:1,2019-09-04T06:35:00,26.0630,-83.0730,1009.99,11111222 
COMPS,ioos:station:USF.COMPS:C13:1,2019-09-04T07:35:00,26.0630,-83.0730,1009.81,11111222 
COMPS,ioos:station:USF.COMPS:C13:1,2019-09-04T08:35:00,26.0630,-83.0730,1009.79,11111222 
COMPS,ioos:station:USF.COMPS:C13:1,2019-09-04T09:35:00,26.0630,-83.0730,1010.46,11111222 
COMPS,ioos:station:USF.COMPS:C13:1,2019-09-04T10:35:00,26.0630,-83.0730,1011.02,11111222 
COMPS,ioos:station:USF.COMPS:C13:1,2019-09-04T11:35:00,26.0630,-83.0730,1011.5,11111222 
COMPS,ioos:station:USF.COMPS:C13:1,2019-09-04T12:35:00,26.0630,-83.0730,1012.42,11111222 
COMPS,ioos:station:USF.COMPS:C13:1,2019-09-04T13:35:00,26.0630,-83.0730,1012.71,11111222 
COMPS,ioos:station:USF.COMPS:C13:1,2019-09-04T14:35:00,26.0630,-83.0730,1012.92,11111222 
COMPS,ioos:station:USF.COMPS:C13:1,2019-09-04T15:35:00,26.0630,-83.0730,1013.37,11111222 
COMPS,ioos:station:USF.COMPS:C13:1,2019-09-04T16:35:00,26.0630,-83.0730,1013.29,11111222 
COMPS,ioos:station:USF.COMPS:C13:1,2019-09-04T17:35:00,26.0630,-83.0730,1013.16,11111222 
COMPS,ioos:station:USF.COMPS:C13:1,2019-09-04T18:35:00,26.0630,-83.0730,1013.1,11111222 
COMPS,ioos:station:USF.COMPS:C13:1,2019-09-04T19:35:00,26.0630,-83.0730,1012.5,11111222 
COMPS,ioos:station:USF.COMPS:C13:1,2019-09-04T20:35:00,26.0630,-83.0730,1012.42,11111222 
COMPS,ioos:station:USF.COMPS:C13:1,2019-09-04T21:35:00,26.0630,-83.0730,1012.4,11111222 
COMPS,ioos:station:USF.COMPS:C13:1,2019-09-04T22:35:00,26.0630,-83.0730,1012.85,11111222 
COMPS,ioos:station:USF.COMPS:C13:1,2019-09-04T23:35:00,26.0630,-83.0730,1013.28,11111222 
COMPS,ioos:station:USF.COMPS:C13:1,2019-09-05T00:35:00,26.0630,-83.0730,1013.19,11111222 
COMPS,ioos:station:USF.COMPS:C13:1,2019-09-05T01:35:00,26.0630,-83.0730,1013.76,11111222 
COMPS,ioos:station:USF.COMPS:C13:1,2019-09-05T02:35:00,26.0630,-83.0730,1014.37,11111222 
COMPS,ioos:station:USF.COMPS:C13:1,2019-09-05T03:35:00,26.0630,-83.0730,1014.56,11111222 
COMPS,ioos:station:USF.COMPS:C13:1,2019-09-05T04:35:00,26.0630,-83.0730,1014.68,11111222 
COMPS,ioos:station:USF.COMPS:C13:1,2019-09-05T05:35:00,26.0630,-83.0730,1014.59,11111222 
COMPS,ioos:station:USF.COMPS:C13:1,2019-09-05T06:35:00,26.0630,-83.0730,1014.56,11111222 
COMPS,ioos:station:USF.COMPS:C13:1,2019-09-05T07:35:00,26.0630,-83.0730,1014.22,11111222 
COMPS,ioos:station:USF.COMPS:C13:1,2019-09-05T08:35:00,26.0630,-83.0730,1014.11,11111222 
COMPS,ioos:station:USF.COMPS:C13:1,2019-09-05T09:35:00,26.0630,-83.0730,1014.49,11111222 
COMPS,ioos:station:USF.COMPS:C13:1,2019-09-05T10:35:00,26.0630,-83.0730,1014.97,11111222 
COMPS,ioos:station:USF.COMPS:C13:1,2019-09-05T11:35:00,26.0630,-83.0730,1015.2,11111222 
COMPS,ioos:station:USF.COMPS:C13:1,2019-09-05T12:35:00,26.0630,-83.0730,1015.73,11111222 
COMPS,ioos:station:USF.COMPS:C13:1,2019-09-05T13:35:00,26.0630,-83.0730,1015.98,11111222 
COMPS,ioos:station:USF.COMPS:C13:1,2019-09-05T14:35:00,26.0630,-83.0730,1016.43,11111222 
COMPS,ioos:station:USF.COMPS:C13:1,2019-09-05T15:35:00,26.0630,-83.0730,1016.56,11111222 
COMPS,ioos:station:USF.COMPS:C13:1,2019-09-05T16:35:00,26.0630,-83.0730,1016.2,11111222 
COMPS,ioos:station:USF.COMPS:C13:1,2019-09-05T17:35:00,26.0630,-83.0730,1016.37,11111222 
COMPS,ioos:station:USF.COMPS:C13:1,2019-09-05T18:35:00,26.0630,-83.0730,1016.07,11111222 
COMPS,ioos:station:USF.COMPS:C13:1,2019-09-05T19:35:00,26.0630,-83.0730,1015.52,11111222 
COMPS,ioos:station:USF.COMPS:C13:1,2019-09-05T20:35:00,26.0630,-83.0730,1014.97,11111222 
COMPS,ioos:station:USF.COMPS:C13:1,2019-09-05T21:35:00,26.0630,-83.0730,1014.65,11111222 
COMPS,ioos:station:USF.COMPS:C13:1,2019-09-05T22:35:00,26.0630,-83.0730,1014.66,11111222 
COMPS,ioos:station:USF.COMPS:C13:1,2019-09-05T23:35:00,26.0630,-83.0730,1014.72,11111222 
COMPS,ioos:station:USF.COMPS:C13:1,2019-09-06T00:35:00,26.0630,-83.0730,1015.23,11111222 
COMPS,ioos:station:USF.COMPS:C13:1,2019-09-06T01:35:00,26.0630,-83.0730,1015.64,11111222 
COMPS,ioos:station:USF.COMPS:C13:1,2019-09-06T02:35:00,26.0630,-83.0730,1015.85,11111222 
COMPS,ioos:station:USF.COMPS:C13:1,2019-09-06T03:35:00,26.0630,-83.0730,1015.5,11111222 
COMPS,ioos:station:USF.COMPS:C13:1,2019-09-06T04:35:00,26.0630,-83.0730,1014.96,11111222 
COMPS,ioos:station:USF.COMPS:C13:1,2019-09-06T06:35:00,26.0630,-83.0730,1014.52,11111222 
COMPS,ioos:station:USF.COMPS:C13:1,2019-09-06T07:35:00,26.0630,-83.0730,1014.34,11111222 
COMPS,ioos:station:USF.COMPS:C13:1,2019-09-06T08:35:00,26.0630,-83.0730,1014.12,11111222 
COMPS,ioos:station:USF.COMPS:C13:1,2019-09-06T09:35:00,26.0630,-83.0730,1014.22,11111222 
COMPS,ioos:station:USF.COMPS:C13:1,2019-09-06T10:35:00,26.0630,-83.0730,1014.59,11111222 
COMPS,ioos:station:USF.COMPS:C13:1,2019-09-06T11:35:00,26.0630,-83.0730,1014.69,11111222 
COMPS,ioos:station:USF.COMPS:C13:1,2019-09-06T12:35:00,26.0630,-83.0730,1015.05,11111222 
COMPS,ioos:station:USF.COMPS:C13:1,2019-09-06T13:35:00,26.0630,-83.0730,1015.35,11111222 
COMPS,ioos:station:USF.COMPS:C13:1,2019-09-06T14:35:00,26.0630,-83.0730,1015.99,11111222 
COMPS,ioos:station:USF.COMPS:C13:1,2019-09-06T15:35:00,26.0630,-83.0730,1015.67,11111222 
COMPS,ioos:station:USF.COMPS:C13:1,2019-09-06T16:35:00,26.0630,-83.0730,1015.48,11111222 
COMPS,ioos:station:USF.COMPS:C13:1,2019-09-06T17:35:00,26.0630,-83.0730,1015.22,11111222 
COMPS,ioos:station:USF.COMPS:C13:1,2019-09-06T18:35:00,26.0630,-83.0730,1014.9,11111222 
COMPS,ioos:station:USF.COMPS:C13:1,2019-09-06T19:35:00,26.0630,-83.0730,1014.17,11111222 
COMPS,ioos:station:USF.COMPS:C13:1,2019-09-06T20:35:00,26.0630,-83.0730,1013.62,11111222 
COMPS,ioos:station:USF.COMPS:C13:1,2019-09-06T21:35:00,26.0630,-83.0730,1013.46,11111222 
COMPS,ioos:station:USF.COMPS:C13:1,2019-09-06T22:35:00,26.0630,-83.0730,1013.48,11111222 
COMPS,ioos:station:USF.COMPS:C13:1,2019-09-06T23:35:00,26.0630,-83.0730,1013.57,11111222 
COMPS,ioos:station:USF.COMPS:C13:1,2019-09-07T00:35:00,26.0630,-83.0730,1013.79,11111222 
COMPS,ioos:station:USF.COMPS:C13:1,2019-09-07T01:35:00,26.0630,-83.0730,1014.25,11111222 
COMPS,ioos:station:USF.COMPS:C13:1,2019-09-07T02:35:00,26.0630,-83.0730,1014.3,11111222 
COMPS,ioos:station:USF.COMPS:C13:1,2019-09-07T03:35:00,26.0630,-83.0730,1014.07,11111222 
COMPS,ioos:station:USF.COMPS:C13:1,2019-09-07T04:35:00,26.0630,-83.0730,1014.24,11111222 
COMPS,ioos:station:USF.COMPS:C13:1,2019-09-07T05:35:00,26.0630,-83.0730,1014.02,11111222 
COMPS,ioos:station:USF.COMPS:C13:1,2019-09-07T06:35:00,26.0630,-83.0730,1013.55,11111222 
COMPS,ioos:station:USF.COMPS:C13:1,2019-09-07T07:35:00,26.0630,-83.0730,1013.44,11111222 
COMPS,ioos:station:USF.COMPS:C13:1,2019-09-07T08:35:00,26.0630,-83.0730,1013.18,11111222 
COMPS,ioos:station:USF.COMPS:C13:1,2019-09-07T09:35:00,26.0630,-83.0730,1013.36,11111222 
COMPS,ioos:station:USF.COMPS:C13:1,2019-09-07T10:35:00,26.0630,-83.0730,1013.85,11111222 
COMPS,ioos:station:USF.COMPS:C13:1,2019-09-07T11:35:00,26.0630,-83.0730,1014.29,11111222 
COMPS,ioos:station:USF.COMPS:C13:1,2019-09-07T12:35:00,26.0630,-83.0730,1014.8,11111222 
COMPS,ioos:station:USF.COMPS:C13:1,2019-09-07T13:35:00,26.0630,-83.0730,1015.2,11111222 
COMPS,ioos:station:USF.COMPS:C13:1,2019-09-07T14:35:00,26.0630,-83.0730,1015.62,11111222 
COMPS,ioos:station:USF.COMPS:C13:1,2019-09-07T15:35:00,26.0630,-83.0730,1015.51,11111222 
COMPS,ioos:station:USF.COMPS:C13:1,2019-09-07T16:35:00,26.0630,-83.0730,1015.18,11111222 
COMPS,ioos:station:USF.COMPS:C13:1,2019-09-07T17:35:00,26.0630,-83.0730,1014.9,11111222 
COMPS,ioos:station:USF.COMPS:C13:1,2019-09-07T18:35:00,26.0630,-83.0730,1014.4,11111222 
COMPS,ioos:station:USF.COMPS:C13:1,2019-09-07T19:35:00,26.0630,-83.0730,1013.84,11111222 
COMPS,ioos:station:USF.COMPS:C13:1,2019-09-07T20:35:00,26.0630,-83.0730,1013.51,11111222 
COMPS,ioos:station:USF.COMPS:C13:1,2019-09-07T21:35:00,26.0630,-83.0730,1013.52,11111222 
COMPS,ioos:station:USF.COMPS:C13:1,2019-09-07T22:35:00,26.0630,-83.0730,1013.58,11111222 
COMPS,ioos:station:USF.COMPS:C13:1,2019-09-07T23:35:00,26.0630,-83.0730,1013.66,11111222 
COMPS,ioos:station:USF.COMPS:C13:1,2019-09-08T00:35:00,26.0630,-83.0730,1013.89,11111222 
COMPS,ioos:station:USF.COMPS:C13:1,2019-09-08T01:35:00,26.0630,-83.0730,1014.32,11111222 
COMPS,ioos:station:USF.COMPS:C13:1,2019-09-08T02:35:00,26.0630,-83.0730,1014.57,11111222 
COMPS,ioos:station:USF.COMPS:C13:1,2019-09-08T03:35:00,26.0630,-83.0730,1015.04,11111222 
COMPS,ioos:station:USF.COMPS:C13:1,2019-09-08T04:35:00,26.0630,-83.0730,1014.92,11111222 
COMPS,ioos:station:USF.COMPS:C13:1,2019-09-08T05:35:00,26.0630,-83.0730,1014.98,11111222 
COMPS,ioos:station:USF.COMPS:C13:1,2019-09-08T06:35:00,26.0630,-83.0730,1014.94,11111222 
COMPS,ioos:station:USF.COMPS:C13:1,2019-09-08T07:35:00,26.0630,-83.0730,1014.73,11111222 
COMPS,ioos:station:USF.COMPS:C13:1,2019-09-08T08:35:00,26.0630,-83.0730,1014.79,11111222 
COMPS,ioos:station:USF.COMPS:C13:1,2019-09-08T09:35:00,26.0630,-83.0730,1015.18,11111222 
COMPS,ioos:station:USF.COMPS:C13:1,2019-09-08T10:35:00,26.0630,-83.0730,1015.8,11111222 
COMPS,ioos:station:USF.COMPS:C13:1,2019-09-08T11:35:00,26.0630,-83.0730,1016.27,11111222 
COMPS,ioos:station:USF.COMPS:C13:1,2019-09-08T12:35:00,26.0630,-83.0730,1016.67,11111222 
COMPS,ioos:station:USF.COMPS:C13:1,2019-09-08T13:35:00,26.0630,-83.0730,1016.84,11111222 
COMPS,ioos:station:USF.COMPS:C13:1,2019-09-08T14:35:00,26.0630,-83.0730,1017.09,11111222 
COMPS,ioos:station:USF.COMPS:C13:1,2019-09-08T15:35:00,26.0630,-83.0730,1017.23,11111222 
COMPS,ioos:station:USF.COMPS:C13:1,2019-09-08T16:35:00,26.0630,-83.0730,1017.07,11111222 
COMPS,ioos:station:USF.COMPS:C13:1,2019-09-08T17:35:00,26.0630,-83.0730,1017.06,11111222 
COMPS,ioos:station:USF.COMPS:C13:1,2019-09-08T18:35:00,26.0630,-83.0730,1016.57,11111222 
COMPS,ioos:station:USF.COMPS:C13:1,2019-09-08T19:35:00,26.0630,-83.0730,1016.07,11111222 
COMPS,ioos:station:USF.COMPS:C13:1,2019-09-08T20:35:00,26.0630,-83.0730,1015.7,11111222 
COMPS,ioos:station:USF.COMPS:C13:1,2019-09-08T21:35:00,26.0630,-83.0730,1015.53,11111222 
COMPS,ioos:station:USF.COMPS:C13:1,2019-09-08T22:35:00,26.0630,-83.0730,1015.55,11111222 
COMPS,ioos:station:USF.COMPS:C13:1,2019-09-08T23:35:00,26.0630,-83.0730,1015.67,11111222 
COMPS,ioos:station:USF.COMPS:C13:1,2019-09-09T00:35:00,26.0630,-83.0730,1016.02,11111222 
COMPS,ioos:station:USF.COMPS:C13:1,2019-09-09T01:35:00,26.0630,-83.0730,1016.49,11111222 
COMPS,ioos:station:USF.COMPS:C13:1,2019-09-09T02:35:00,26.0630,-83.0730,1017.08,11111222 
COMPS,ioos:station:USF.COMPS:C13:1,2019-09-09T03:35:00,26.0630,-83.0730,1017.27,11111222 
COMPS,ioos:station:USF.COMPS:C13:1,2019-09-09T04:35:00,26.0630,-83.0730,1017.22,11111222 
COMPS,ioos:station:USF.COMPS:C13:1,2019-09-09T05:35:00,26.0630,-83.0730,1017.18,11111222 
COMPS,ioos:station:USF.COMPS:C13:1,2019-09-09T06:35:00,26.0630,-83.0730,1016.91,11111222 
COMPS,ioos:station:USF.COMPS:C13:1,2019-09-09T07:35:00,26.0630,-83.0730,1016.76,11111222 
COMPS,ioos:station:USF.COMPS:C13:1,2019-09-09T08:35:00,26.0630,-83.0730,1016.72,11111222 
COMPS,ioos:station:USF.COMPS:C13:1,2019-09-09T09:35:00,26.0630,-83.0730,1016.85,11111222 
COMPS,ioos:station:USF.COMPS:C13:1,2019-09-09T10:35:00,26.0630,-83.0730,1017.27,11111222 
COMPS,ioos:station:USF.COMPS:C13:1,2019-09-09T11:35:00,26.0630,-83.0730,1017.69,11111222 
COMPS,ioos:station:USF.COMPS:C13:1,2019-09-09T12:35:00,26.0630,-83.0730,1018.4,11111222 
COMPS,ioos:station:USF.COMPS:C13:1,2019-09-09T13:35:00,26.0630,-83.0730,1019.0,11111222 
COMPS,ioos:station:USF.COMPS:C13:1,2019-09-09T14:35:00,26.0630,-83.0730,1019.43,11111222 
COMPS,ioos:station:USF.COMPS:C13:1,2019-09-09T15:35:00,26.0630,-83.0730,1019.44,11111222 
COMPS,ioos:station:USF.COMPS:C13:1,2019-09-09T16:35:00,26.0630,-83.0730,1019.16,11111222 
COMPS,ioos:station:USF.COMPS:C13:1,2019-09-09T17:35:00,26.0630,-83.0730,1018.88,11111222 
COMPS,ioos:station:USF.COMPS:C13:1,2019-09-09T21:35:00,26.0630,-83.0730,1017.27,11111222 
COMPS,ioos:station:USF.COMPS:C13:1,2019-09-09T22:35:00,26.0630,-83.0730,1017.13,11111222 
COMPS,ioos:station:USF.COMPS:C13:1,2019-09-09T23:35:00,26.0630,-83.0730,1017.53,11111222 
COMPS,ioos:station:USF.COMPS:C13:1,2019-09-10T00:35:00,26.0630,-83.0730,1017.72,11111222 
COMPS,ioos:station:USF.COMPS:C13:1,2019-09-10T01:35:00,26.0630,-83.0730,1018.55,11111222 
COMPS,ioos:station:USF.COMPS:C13:1,2019-09-10T02:35:00,26.0630,-83.0730,1019.56,11111222 
COMPS,ioos:station:USF.COMPS:C13:1,2019-09-10T03:35:00,26.0630,-83.0730,1019.29,11111222 
COMPS,ioos:station:USF.COMPS:C13:1,2019-09-10T04:35:00,26.0630,-83.0730,1019.08,11111222 
COMPS,ioos:station:USF.COMPS:C13:1,2019-09-10T05:35:00,26.0630,-83.0730,1018.64,11111222 
COMPS,ioos:station:USF.COMPS:C13:1,2019-09-10T06:35:00,26.0630,-83.0730,1018.1,11111222 
COMPS,ioos:station:USF.COMPS:C13:1,2019-09-10T07:35:00,26.0630,-83.0730,1017.74,11111222 
COMPS,ioos:station:USF.COMPS:C13:1,2019-09-10T08:35:00,26.0630,-83.0730,1017.86,11111222 
COMPS,ioos:station:USF.COMPS:C13:1,2019-09-10T09:35:00,26.0630,-83.0730,1018.07,11111222 
COMPS,ioos:station:USF.COMPS:C13:1,2019-09-10T10:35:00,26.0630,-83.0730,1018.59,11111222 
COMPS,ioos:station:USF.COMPS:C13:1,2019-09-10T11:35:00,26.0630,-83.0730,1019.25,11111222 
COMPS,ioos:station:USF.COMPS:C13:1,2019-09-10T12:35:00,26.0630,-83.0730,1020.07,11111222 
COMPS,ioos:station:USF.COMPS:C13:1,2019-09-10T13:35:00,26.0630,-83.0730,1020.78,11111222 
COMPS,ioos:station:USF.COMPS:C13:1,2019-09-10T14:35:00,26.0630,-83.0730,1020.76,11111222 
COMPS,ioos:station:USF.COMPS:C13:1,2019-09-10T15:35:00,26.0630,-83.0730,1020.68,11111222 
COMPS,ioos:station:USF.COMPS:C13:1,2019-09-10T16:35:00,26.0630,-83.0730,1020.37,11111222 
COMPS,ioos:station:USF.COMPS:C13:1,2019-09-10T17:35:00,26.0630,-83.0730,1020.49,11111222 
COMPS,ioos:station:USF.COMPS:C13:1,2019-09-10T18:35:00,26.0630,-83.0730,1020.24,11111222 
COMPS,ioos:station:USF.COMPS:C13:1,2019-09-10T19:35:00,26.0630,-83.0730,1019.37,11111222 
COMPS,ioos:station:USF.COMPS:C13:1,2019-09-10T20:35:00,26.0630,-83.0730,1018.89,11111222 
COMPS,ioos:station:USF.COMPS:C13:1,2019-09-10T21:35:00,26.0630,-83.0730,1018.57,11111222 
COMPS,ioos:station:USF.COMPS:C13:1,2019-09-10T22:35:00,26.0630,-83.0730,1018.23,11111222 
COMPS,ioos:station:USF.COMPS:C13:1,2019-09-10T23:35:00,26.0630,-83.0730,1017.88,11111222 
COMPS,ioos:station:USF.COMPS:C13:1,2019-09-11T00:35:00,26.0630,-83.0730,1018.2,11111222 
COMPS,ioos:station:USF.COMPS:C13:1,2019-09-11T01:35:00,26.0630,-83.0730,1018.6,11111222 
COMPS,ioos:station:USF.COMPS:C13:1,2019-09-11T02:35:00,26.0630,-83.0730,1018.74,11111222 
COMPS,ioos:station:USF.COMPS:C13:1,2019-09-11T03:35:00,26.0630,-83.0730,1019.03,11111222 
COMPS,ioos:station:USF.COMPS:C13:1,2019-09-11T04:35:00,26.0630,-83.0730,1019.1,11111222 
COMPS,ioos:station:USF.COMPS:C13:1,2019-09-11T05:35:00,26.0630,-83.0730,1019.41,11111222 
COMPS,ioos:station:USF.COMPS:C13:1,2019-09-11T06:35:00,26.0630,-83.0730,1018.67,11111222 
COMPS,ioos:station:USF.COMPS:C13:1,2019-09-11T07:35:00,26.0630,-83.0730,1018.33,11111222 
COMPS,ioos:station:USF.COMPS:C13:1,2019-09-11T08:35:00,26.0630,-83.0730,1018.02,11111222 
COMPS,ioos:station:USF.COMPS:C13:1,2019-09-11T09:35:00,26.0630,-83.0730,1018.2,11111222 
COMPS,ioos:station:USF.COMPS:C13:1,2019-09-11T10:35:00,26.0630,-83.0730,1018.21,11111222 
COMPS,ioos:station:USF.COMPS:C13:1,2019-09-11T11:35:00,26.0630,-83.0730,1018.61,11111222 
COMPS,ioos:station:USF.COMPS:C13:1,2019-09-11T12:35:00,26.0630,-83.0730,1018.8,11111222 
COMPS,ioos:station:USF.COMPS:C13:1,2019-09-11T13:35:00,26.0630,-83.0730,1019.06,11111222 
COMPS,ioos:station:USF.COMPS:C13:1,2019-09-11T14:35:00,26.0630,-83.0730,1019.31,11111222 
COMPS,ioos:station:USF.COMPS:C13:1,2019-09-11T15:35:00,26.0630,-83.0730,1019.16,11111222 
COMPS,ioos:station:USF.COMPS:C13:1,2019-09-11T16:35:00,26.0630,-83.0730,1018.72,11111222 
COMPS,ioos:station:USF.COMPS:C13:1,2019-09-11T17:35:00,26.0630,-83.0730,1018.21,11111222 
COMPS,ioos:station:USF.COMPS:C13:1,2019-09-11T18:35:00,26.0630,-83.0730,1017.75,11111222 
COMPS,ioos:station:USF.COMPS:C13:1,2019-09-11T19:35:00,26.0630,-83.0730,1016.71,11111222 
COMPS,ioos:station:USF.COMPS:C13:1,2019-09-11T20:35:00,26.0630,-83.0730,1016.32,11111222 
COMPS,ioos:station:USF.COMPS:C13:1,2019-09-11T21:35:00,26.0630,-83.0730,1015.81,11111222 
COMPS,ioos:station:USF.COMPS:C13:1,2019-09-11T22:35:00,26.0630,-83.0730,1015.41,11111222 
COMPS,ioos:station:USF.COMPS:C13:1,2019-09-11T23:35:00,26.0630,-83.0730,1015.44,11111222 
COMPS,ioos:station:USF.COMPS:C13:1,2019-09-12T00:35:00,26.0630,-83.0730,1015.32,11111222 
COMPS,ioos:station:USF.COMPS:C13:1,2019-09-12T01:35:00,26.0630,-83.0730,1015.76,11111222 
COMPS,ioos:station:USF.COMPS:C13:1,2019-09-12T02:35:00,26.0630,-83.0730,1016.05,11111222 
COMPS,ioos:station:USF.COMPS:C13:1,2019-09-12T03:35:00,26.0630,-83.0730,1016.29,11111222 
COMPS,ioos:station:USF.COMPS:C13:1,2019-09-12T04:35:00,26.0630,-83.0730,1016.07,11111222 
COMPS,ioos:station:USF.COMPS:C13:1,2019-09-12T05:35:00,26.0630,-83.0730,1015.97,11111222 
COMPS,ioos:station:USF.COMPS:C13:1,2019-09-12T06:35:00,26.0630,-83.0730,1015.32,11111222 